Welcome to the New NWS' Forecast!
Most changes are behind the scenes, but click here for differences you might notice.

Regional Weather Roundup (RWR)

Issued by Gray - Portland, ME (GYX)

                            
681 
ASUS41 KGYX 191910
RWRGYX
WEATHER ROUNDUP FOR MAINE AND NEW HAMPSHIRE
NATIONAL WEATHER SERVICE GRAY ME
300 PM EDT THU JUL 19 2018

MEZ002-005-006-010-012-015-018-020-021-024-026-027-029-192000-
MAINE
  
CITY           SKY/WX    TMP DP  RH WIND       PRES   REMARKS
PORTLAND       FAIR      77  48  35 S14G21    30.07S                  
SANFORD        FAIR      76  52  43 SE9       30.08S                  
BAR HARBOR     FAIR      77  50  38 SW8       30.04S                  
WISCASSET      FAIR      76  52  43 SE9       30.07S                  
ROCKLAND       FAIR      72  51  47 S10       30.06S                  
FRYEBURG       FAIR      82  46  28 VRB5      30.06F                  
LEWISTONAUBURN FAIR      78  46  32 CALM      30.06                   
AUGUSTA        FAIR      78  49  35 MISG      30.06S                  
WATERVILLE     FAIR      76  48  37 NE5       30.03S                  
BANGOR         FAIR      78  47  33 VRB6      30.04S                  
GREENVILLE       N/A     73  47  39 N9        30.05S                  
MILLINOCKET    FAIR      77  46  33 W8        30.03F                  
HOULTON        FAIR      76  47  35 CALM      30.00S                  
PRESQUE ISLE   FAIR      78  45  30 VRB6      30.00F                  
FRENCHVILLE    FAIR      78  46  32 W9        29.99F                  
CARIBOU        FAIR      77  43  29 S8        29.98F                  
$$

NHZ002-005-008-009-011-012-014-192000-
NEW HAMPSHIRE
  
CITY           SKY/WX    TMP DP  RH WIND       PRES   REMARKS
PORTSMOUTH     SUNNY     76  49  38 SE10      30.06F                  
ROCHESTER      FAIR      80  48  32 CALM      30.06F                  
NASHUA         FAIR      80  49  33 N5        30.07F                  
MANCHESTER     FAIR      79  46  31 CALM      30.05F                  
CONCORD        FAIR      79  48  33 W3        30.06F                  
LACONIA        FAIR      78  46  32 CALM      30.08S                  
PLYMOUTH       FAIR      78  43  29 CALM      30.07S                  
BERLIN         FAIR      77  49  37 VRB7      30.08F                  
WHITEFIELD     FAIR      76  45  33 VRB5      30.09S                  
JAFFREY        FAIR      76  47  35 SW7       30.11S                  
KEENE          FAIR      82  51  34 CALM      30.09S                  
LEBANON        FAIR      78  49  35 VRB5      30.07F                  
MT WASHINGTON  MOSUNNY   54  37  54 W9          N/A                   
$$

VTZ005-007-008-192000-
VERMONT
  
CITY           SKY/WX    TMP DP  RH WIND       PRES   REMARKS
ST JOHNSBURY     N/A     78  46  32 MISG      30.06S                  
MONTPELIER     FAIR      75  48  38 VRB6      30.13S                  
BURLINGTON     FAIR      81  46  29 NE6       30.07F                  
$$

MAZ007-012-024-CTZ003-RIZ002-NYZ038-NYZ072-192000-
SOUTHERN NEW ENGLAND AND NY
  
CITY           SKY/WX    TMP DP  RH WIND       PRES   REMARKS
BOSTON         FAIR      75  52  44 E14       30.08F                  
WORCESTER      SUNNY     75  52  43 SW12      30.10F                  
NANTUCKET      FAIR      76  58  53 N9        30.08F                  
PROVIDENCE     FAIR      81  45  28 SW6       30.08F                  
HARTFORD       FAIR      80  51  36 VRB6      30.07F                  
ALBANY         FAIR      80  46  30 CALM      30.09F                  
NEW YORK CITY  FAIR      81  47  30 NE7       30.08F                  
$$

ANZ081-ANZ082-ANZ150-NHZ014-MEZ023>029-192000-
COASTAL MARINE OBSERVATIONS
  
STATION/POSITION TIME  TEMP    WIND        PRES    WAVE
                       AIR SEA DIR/SP/G            HT/PER
                 (UTC) (F)     (DEG/KT/KT) (MB)    (FT/S)
MOUNT DESERT ROC 1900   61     200/ 10/ 10 1018.1F
MATINICUS ROCK   1800   65     220/ 11/ 11 1018.2S
ISLE OF SHOALS   1800   67     120/ 11/ 11 1018.1F
JEFFREYS LEDGE   1836      70                N/A     3/ 8
$$

.............KEY..............
   WCI - WIND CHILL
   TC  - TEMPERATURE IN CELSIUS
   VSB - VISIBILITY IN MILES
   HX  - HEAT INDEX
   FAIR- INDICATES FEW OR NO CLOUDS BELOW 12,000 FT, WITH NO 
         SIGNIFICANT WEATHER AND/OR OBSTRUCTIONS TO VISIBILITY.